Regional Weather Roundup
Issued by NWS Green Bay, WI

Home | Current Version | Previous Version | Graphics & Text | Print | Product List | Glossary Off
Versions: 1 2 3 4 5 6 7 8 9 10 11 12 13 14 15 16 17 18 19 20 21 22 23 24 25 26 27 28 29 30 31 32 33 34 35 36 37 38 39 40 41 42 43 44 45 46 47 48 49 50

531
ASUS43 KGRB 291800
RWRGRB

NORTH-CENTRAL AND NORTHEAST WISCONSIN REGIONAL WEATHER ROUNDUP
NATIONAL WEATHER SERVICE GREEN BAY WI
100 PM CDT THU SEP 29 2016

WIZ005-009-010>012-018-019-291900-
NORTH CENTRAL WISCONSIN

CITY           SKY/WX    TMP DP  RH WIND       PRES   REMARKS
IRONWOOD       PTSUNNY   61  53  75 VRB6      30.50
MANITOWISH WTR NOT AVBL
ARBOR VITAE    NOT AVBL
EAGLE RIVER    NOT AVBL
LAND O LAKES   NOT AVBL
RHINELANDER    FAIR      65  53  65 MISG      30.46F
PHILLIPS       NOT AVBL
ANTIGO         NOT AVBL
TOMAHAWK       NOT AVBL
MERRILL        NOT AVBL
$$

WIZ013-073-291900-
NORTHEAST WISCONSIN

CITY           SKY/WX    TMP DP  RH WIND       PRES   REMARKS
IRON MOUNTAIN  FAIR      70  49  47 VRB7G16   30.42F
MARINETTE      FAIR      66  57  72 E17G23    30.40R
$$

WIZ017-030-035>037-045-291900-
CENTRAL WISCONSIN

CITY           SKY/WX    TMP DP  RH WIND       PRES   REMARKS
MEDFORD        NOT AVBL
WAUSAU         FAIR      67  53  61 N10       30.40F
MOSINEE        SUNNY     66  54  63 N7        30.42F
MARSHFIELD     FAIR      68  51  54 N10       30.41F
WISC RAPIDS    FAIR      70  53  54 NE12      30.40F
STEVENS POINT  NOT AVBL
WAUPACA        NOT AVBL
SHAWANO        NOT AVBL
CLINTONVILLE   NOT AVBL
WAUTOMA        FAIR      71  51  49 NE12G17   30.36F
$$

WIZ038-039-048-051-291900-
FOX VALLEY

CITY           SKY/WX    TMP DP  RH WIND       PRES   REMARKS
NWS GREEN BAY  FAIR      69  58  67 NE17G24   30.36F
APPLETON       MOSUNNY   68  48  49 NE17G23   30.35F
OSHKOSH        FAIR      67  56  67 N23G30    30.33F
FOND DU LAC    FAIR      68  58  70 N20G26    30.33F
$$

WIZ022-050-052-291900-
EAST CENTRAL WISCONSIN

CITY           SKY/WX    TMP DP  RH WIND       PRES   REMARKS
EPHRAIM        NOT AVBL
WASHINGTON ISL NOT AVBL
STURGEON BAY   FAIR      67  58  72 N16       30.37F
MANITOWOC      FAIR      66  57  72 NE17G26   30.33S
SHEBOYGAN      FAIR      67  59  75 NE23G31   30.31S
$$

LMZ563-521-522-541>543-291900-
LAKESHORE

STATION/POSITION TIME  TEMP    WIND        PRES    VSBY  WAVE
                       AIR SEA DIR/SP/G                  HT/PER
                 (UTC) (F)     (DEG/KT/KT) (MB)    (MI)  (FT/S)
SHEBOYGAN LKSHOR 1700   61      20/ 19/ 20 1026.4R
KEWAUNEE LKSHORE 1700   62      10/ 10/ 17 1027.2F
NORTHPORT PIER   1700   65      30/  7/ 12 1029.1R
N MID LAKE BUOY  1650   62 66   40/ 16/ 19 1028.4R         3/ 4
S GREEN BAY BUOY 1730   62 63   40/ 19/ 21 1027.9
SISTER BAY LKSHO 1708   71     360/ 14/ 18   N/A
CHAMBERS ISLAND  1700   63      10/ 16/ 19 1028.8R
MENOMINEE LKSHOR 1700   62      30/ 19/ 21 1028.3S
$$




USA.gov is the U.S. government's official web portal to all federal, state and local government web resources and services.